Regional Weather Roundup
Issued by NWS

Home | Current Version | Previous Version | Graphics & Text | Print | Product List | Glossary On
Versions: 1 2 3 4 5 6 7 8 9 10 11 12 13 14 15 16 17 18 19 20 21 22 23 24 25 26 27 28 29 30 31 32 33 34 35 36 37 38 39 40 41 42 43 44 45 46 47 48 49 50
000
ASUS43 KMPX 160110
RWRMN
WEATHER ROUNDUP FOR MINNESOTA
NATIONAL WEATHER SERVICE TWIN CITIES/CHANHASSEN MN
800 PM CDT TUE APR 15 2014


NOTE: "FAIR" INDICATES FEW OR NO CLOUDS BELOW 12,000 FEET WITH NO
SIGNIFICANT WEATHER AND/OR OBSTRUCTIONS TO VISIBILITY. N/A MEANS
CURRENT SKY AND/OR WEATHER CONDITIONS ARE NOT AVAILABLE.

MNZ060>063-068>070-160200-
   Twin Cities Metro

CITY           SKY/WX    TMP DP  RH WIND       PRES   REMARKS
TWIN CITIES    CLOUDY    35   4  27 SE7       30.05S WCI  29
ST PAUL        CLOUDY    34   5  29 S7        30.06S WCI  28
CRYSTAL        CLOUDY    35   1  23 CALM      30.03F
EDEN PRAIRIE   CLOUDY    36   7  29 S8        30.04R
LAKEVILLE      CLOUDY    34  10  37 S3        30.05R
SOUTH ST PAUL  CLOUDY    38   5  25 CALM      30.05S
LAKE ELMO      FAIR      34   7  32 SE5       30.06S WCI  30
$$
MNZ001>005-007-008-013>017-022>024-027-028-160200-
   Northwest Minnesota

CITY           SKY/WX    TMP DP  RH WIND       PRES   REMARKS
BEMIDJI        CLOUDY    28  -1  29 E7        30.00S WCI  21
HALLOCK        CLOUDY    28  14  54 E9        30.03S WCI  20
ROSEAU         PTCLDY    27  10  50 E8        30.04S WCI  18
WARROAD        CLEAR     21  10  63 E7        30.06R WCI  13
THIEF RVR FALL MOCLDY    28   9  43 NE6       30.02S WCI  22
CROOKSTON      MOCLDY    30   9  40 SE6       30.01F WCI  24
FOSSTON        MOCLDY    28  10  47 NE7       30.00S WCI  21
DETROIT LAKES  CLOUDY    32   9  37 SE6       29.99S WCI  26
MOORHEAD       CLOUDY    34   9  35 SE8       30.00R WCI  27
PARK RAPIDS    CLOUDY    30   6  36 S6        29.98S WCI  24
$$
MNZ006-009>011-018-025>026-160200-
   North Central Minnesota

CITY           SKY/WX    TMP DP  RH WIND       PRES   REMARKS
BAUDETTE       CLEAR     23   2  40 N3        30.05S
FLAG ISLAND    CLEAR     21   7  53 CALM      30.05S
INTL FALLS     CLEAR     26   3  37 CALM      30.04R
WASKISH        PTCLDY    25  10  54 CALM      30.03S
BIG FORK       PTCLDY    28  -4  24 CALM      30.03R
LONGVILLE      CLOUDY    28   1  31 CALM      30.01S
GRAND RAPIDS   MOCLDY    28  -6  22 CALM      30.02R
CRANE LAKE     CLEAR     23   1  39 CALM      30.07R
ORR            CLEAR     27  -4  26 CALM      30.01R
COOK           CLEAR     28   1  31 NW3       30.03R
$$
MNZ012-019>021-037-160200-
   Northeast Minnesota

CITY           SKY/WX    TMP DP  RH WIND       PRES   REMARKS
DULUTH         PTCLDY    28   3  34 S5        30.03R WCI  23
ELY            CLEAR     27  -2  28 CALM      30.02R
HIBBING        PTCLDY    29  -3  25 CALM      30.02R
EVELETH        CLEAR     28   1  31 W3        30.03R
DULUTH HARBOR  CLEAR     32   7  34 CALM      30.08R
TWO HARBORS    CLEAR     27   9  46 SW5       30.03R WCI  21
SILVER BAY     CLEAR     25  12  58 CALM      30.03R
GRAND MARAIS     N/A     29  18  63 SW14G21   30.07R WCI  18
G MARAIS ARPRT CLEAR     21  -4  33 W3        30.00R
$$
MNZ029>031-032-039>041-046>048-054>057-064-160200-
   West Central Minnesota

CITY           SKY/WX    TMP DP  RH WIND       PRES   REMARKS
FERGUS FALLS   CLOUDY    34   1  25 SE10      29.97R WCI  26
WHEATON        CLOUDY    36  18  48 E15       29.95F
MORRIS         MOCLDY    36   9  32 E17       29.94S
ALEXANDRIA     CLOUDY    32   4  30 SE9       29.99R WCI  24
ELBOW LAKE     CLOUDY    32   9  38 E12       29.96F WCI  23
WADENA         CLOUDY    30   9  40 SE5       29.99S WCI  25
GLENWOOD       CLOUDY    32   7  34 E12       29.99S WCI  23
APPLETON       CLOUDY    37  10  32 E15       29.93F
BENSON         MOCLDY    36  10  35 SE9G16    29.96S
ORTONVILLE     CLOUDY    36   9  32 E16G22    29.91S
MADISON        CLOUDY    39  16  38 E16G24    29.91F
WILLMAR        FAIR      36  12  38 SE10      30.00S
$$
MNZ033>034-036-042>043-049>051-058-059-160200-
   Central Minnesota

CITY           SKY/WX    TMP DP  RH WIND       PRES   REMARKS
ST CLOUD       CLOUDY    34   6  31 S3        30.03R
SAUK CENTRE    CLOUDY    32   8  36 SE7       30.01S WCI  26
PAYNESVILLE    CLOUDY    33   7  34 CALM      30.02S
AITKIN         MOCLDY    30   0  27 SE3       30.02S
PINE RIVER     MOCLDY    28   7  40 E5        30.04S WCI  23
BRAINERD       MOCLDY    33   4  29 SE6       30.03R WCI  28
STAPLES        CLOUDY    30   5  34 SE6       30.00S WCI  24
LONG PRAIRIE   CLOUDY    30  10  43 CALM      30.01R
LITTLE FALLS   CLOUDY    32   5  32 CALM      30.02S
LITCHFIELD     CLOUDY    34  10  37 SE6       30.02S WCI  29
BUFFALO        CLOUDY    34   6  31 S5        30.05R WCI  30
MAPLE LAKE     CLOUDY    35  10  36 S5        30.04S WCI  30
$$
MNZ037-044-045-052-053-160200-
   East Central Minnesota

CITY           SKY/WX    TMP DP  RH WIND       PRES   REMARKS
PRINCETON      MOCLDY    34   3  27 S5        30.05R WCI  30
MORA           PTCLDY    30   9  40 CALM      30.06S
CAMBRIDGE      PTCLDY    36  14  41 CALM      30.03S
RUSH CITY      CLOUDY    30   7  38 CALM      30.06R
MOOSE LAKE     MOCLDY    30   3  31 S3        30.03R
HINCKLEY       FAIR      32  10  40 CALM      30.05S
CLOQUET        PTCLDY    28  -4  24 CALM      30.04R
MCGREGOR       MOCLDY    30   7  37 S3        30.04R
$$
MNZ071>073-080-081-089-090-097-098-160200-
   Southwest Minnesota

CITY           SKY/WX    TMP DP  RH WIND       PRES   REMARKS
MONTEVIDEO     CLOUDY    36  12  38 SE18      29.95F
GRANITE FALLS  CLOUDY    37  10  33 E13G20    29.96F
CANBY          CLOUDY    40  21  46 SE13      29.89F
MARSHALL       CLOUDY    41  18  38 SE18      29.90F
REDWOOD FALLS  MOCLDY    37  13  37 E12       29.98S
OLIVIA         MOCLDY    36  14  41 E10       29.98F
PIPESTONE      MOCLDY    41  21  45 SE15      29.84F
WINDOM         CLOUDY    37  21  52 SE12      29.95F
WORTHINGTON    MOCLDY    39  19  45 SE15      29.92F
JACKSON        MOCLDY    37  23  56 SE15      29.96F
TRACY          MOCLDY    40  19  44 SE13      29.92F
SLAYTON        MOCLDY    38  22  52 SE16      29.91F
$$
MNZ065>067-074>077-082>085-091>093-160200-
   South Central Minnesota

CITY           SKY/WX    TMP DP  RH WIND       PRES   REMARKS
MANKATO        MOCLDY    36  10  35 S8        30.04S
NEW ULM        CLOUDY    36  12  38 SE10      30.01S
ST JAMES       MOCLDY    37  21  52 SE9       30.01F
FAIRMONT       MOCLDY    37  19  48 SE12      30.02R
GLENCOE        CLOUDY    35   6  29 E5        30.03R WCI  31
FARIBAULT      CLOUDY    37   7  28 SE8       30.05S
OWATONNA       CLOUDY    34  12  40 S3        30.05S
WASECA         MOCLDY    34  18  51 SE5       30.06R WCI  30
ALBERT LEA     MOCLDY    34  16  47 S5        30.04R WCI  30
$$
MNZ078>079-086>088-094>096-160200-
   Southeast Minnesota

CITY           SKY/WX    TMP DP  RH WIND       PRES   REMARKS
ROCHESTER      CLOUDY    33  16  49 S6        30.06R WCI  28
RED WING       CLOUDY    36  10  35 S6        30.06F
STANTON        CLOUDY    35  12  38 S6        30.04S WCI  30
DODGE CENTER   CLOUDY    36  16  44 S6        30.05R
WINONA         CLEAR     34  14  44 CALM      30.10S
AUSTIN         CLOUDY    34  16  47 CALM      30.05R
PRESTON        PTCLDY    32  17  53 S5        30.07S WCI  28
$$
ABBREVIATIONS USED IN REMARKS
   TC - TEMPERATURES IN CELSIUS
  WCI - WIND CHILL INDEX
   HX - HEAT INDEX
  VSB - VISIBILITY
$$


USA.gov is the U.S. government's official web portal to all federal, state and local government web resources and services.